• In Belarus
  • List of Countries
  • For 7 days
  • Water Temperature
  • Satellite Maps
  • Weather Map
  • Weather Widgets
  • user-avatar
    Login

    Hourly Weather Megri

    Today, 18 June, Tuesday

    Time Temperature Precipitation Wind Pressure Humidity
    00:00 +18°C° 0 mm 2 mps 622 mmHg 68%
    01:00 +19°C° 0 mm 1 mps 621 mmHg 68%
    02:00 +18°C° 0 mm 1 mps 621 mmHg 69%
    03:00 +16°C° 0 mm 0 mps 621 mmHg 64%
    04:00 +19°C° 0 mm 1 mps 622 mmHg 61%
    05:00 +19°C° 0 mm 1 mps 622 mmHg 57%
    06:00 +20°C° 0 mm 1 mps 623 mmHg 54%
    07:00 +21°C° 0 mm 1 mps 623 mmHg 50%
    08:00 +23°C° 0 mm 1 mps 623 mmHg 45%
    09:00 +24°C° 0 mm 1 mps 624 mmHg 41%
    10:00 +25°C° 0 mm 2 mps 624 mmHg 37%
    11:00 +26°C° 0 mm 2 mps 624 mmHg 33%
    12:00 +27°C° 0 mm 3 mps 624 mmHg 30%
    13:00 +27°C° 0 mm 3 mps 624 mmHg 28%
    14:00 +28°C° 0 mm 3 mps 623 mmHg 27%
    15:00 +28°C° 0 mm 4 mps 623 mmHg 26%
    16:00 +27°C° 0 mm 3 mps 623 mmHg 28%
    17:00 +27°C° 0 mm 3 mps 622 mmHg 31%
    18:00 +26°C° 0 mm 2 mps 622 mmHg 34%
    19:00 +24°C° 0 mm 2 mps 622 mmHg 42%
    20:00 +21°C° 0 mm 2 mps 622 mmHg 50%
    21:00 +19°C° 0 mm 2 mps 621 mmHg 58%
    22:00 +18°C° 0 mm 2 mps 621 mmHg 61%
    23:00 +18°C° 0 mm 3 mps 621 mmHg 63%

    Tomorrow, 19 June, Wednesday

    Time Temperature Precipitation Wind Pressure Humidity
    00:00 +17°C° 0 mm 3 mps 621 mmHg 66%
    01:00 +16°C° 0 mm 3 mps 621 mmHg 68%
    02:00 +16°C° 0 mm 2 mps 620 mmHg 69%
    03:00 +15°C° 0 mm 2 mps 620 mmHg 71%
    04:00 +16°C° 0 mm 2 mps 620 mmHg 69%
    05:00 +16°C° 0 mm 2 mps 621 mmHg 67%
    06:00 +17°C° 0 mm 2 mps 621 mmHg 65%
    07:00 +18°C° 0 mm 2 mps 621 mmHg 59%
    08:00 +20°C° 0 mm 2 mps 622 mmHg 53%
    09:00 +21°C° 0 mm 2 mps 622 mmHg 47%
    10:00 +22°C° 0.1 mm 3 mps 623 mmHg 43%
    11:00 +24°C° 0.1 mm 3 mps 623 mmHg 40%
    12:00 +25°C° 0.1 mm 3 mps 623 mmHg 36%
    13:00 +25°C° 0 mm 3 mps 623 mmHg 37%
    14:00 +25°C° 0 mm 4 mps 623 mmHg 38%
    15:00 +26°C° 0 mm 4 mps 623 mmHg 39%
    16:00 +25°C° 0.2 mm 5 mps 622 mmHg 41%
    17:00 +23°C° 0.2 mm 5 mps 622 mmHg 44%
    18:00 +22°C° 0.2 mm 5 mps 621 mmHg 46%
    19:00 +21°C° 0 mm 4 mps 621 mmHg 50%
    20:00 +19°C° 0 mm 4 mps 621 mmHg 54%
    21:00 +18°C° 0 mm 3 mps 621 mmHg 59%
    22:00 +18°C° 0 mm 3 mps 621 mmHg 60%
    23:00 +17°C° 0 mm 3 mps 621 mmHg 61%

    Day after tomorrow, 20 June, Thursday

    Time Temperature Precipitation Wind Pressure Humidity
    00:00 +17°C° 0 mm 3 mps 621 mmHg 62%
    01:00 +16°C° 0 mm 2 mps 621 mmHg 62%
    02:00 +16°C° 0 mm 2 mps 621 mmHg 62%
    03:00 +15°C° 0 mm 2 mps 620 mmHg 62%
    04:00 +16°C° 0 mm 2 mps 621 mmHg 59%
    05:00 +17°C° 0 mm 2 mps 621 mmHg 56%
    06:00 +17°C° 0 mm 2 mps 621 mmHg 53%
    07:00 +19°C° 0 mm 2 mps 622 mmHg 48%
    08:00 +20°C° 0 mm 3 mps 622 mmHg 44%
    09:00 +22°C° 0 mm 3 mps 623 mmHg 39%
    10:00 +24°C° 0 mm 3 mps 623 mmHg 38%
    11:00 +25°C° 0 mm 3 mps 623 mmHg 36%
    12:00 +26°C° 0 mm 4 mps 623 mmHg 35%
    13:00 +26°C° 0 mm 4 mps 623 mmHg 35%
    14:00 +27°C° 0 mm 4 mps 622 mmHg 35%
    15:00 +27°C° 0 mm 4 mps 622 mmHg 35%
    16:00 +26°C° 0 mm 4 mps 622 mmHg 37%
    17:00 +25°C° 0 mm 4 mps 621 mmHg 40%
    18:00 +23°C° 0 mm 5 mps 621 mmHg 43%
    19:00 +22°C° 0 mm 4 mps 621 mmHg 45%
    20:00 +20°C° 0 mm 4 mps 621 mmHg 47%
    21:00 +19°C° 0 mm 3 mps 620 mmHg 49%
    22:00 +18°C° 0 mm 3 mps 620 mmHg 50%
    23:00 +18°C° 0 mm 3 mps 620 mmHg 51%

    21 June, Friday

    Time Temperature Precipitation Wind Pressure Humidity
    00:00 +17°C° 0 mm 3 mps 620 mmHg 52%
    01:00 +17°C° 0 mm 3 mps 620 mmHg 52%
    02:00 +16°C° 0 mm 3 mps 620 mmHg 52%
    03:00 +16°C° 0 mm 3 mps 619 mmHg 53%
    04:00 +16°C° 0 mm 3 mps 620 mmHg 52%
    05:00 +17°C° 0 mm 3 mps 620 mmHg 51%
    06:00 +17°C° 0 mm 2 mps 620 mmHg 50%
    07:00 +19°C° 0 mm 3 mps 621 mmHg 46%
    08:00 +20°C° 0 mm 3 mps 621 mmHg 43%
    09:00 +22°C° 0 mm 3 mps 622 mmHg 39%
    10:00 +24°C° 0 mm 3 mps 622 mmHg 38%
    11:00 +25°C° 0 mm 4 mps 622 mmHg 37%
    12:00 +26°C° 0 mm 4 mps 622 mmHg 37%
    13:00 +26°C° 0.1 mm 4 mps 622 mmHg 37%
    14:00 +26°C° 0.1 mm 5 mps 621 mmHg 38%
    15:00 +26°C° 0.1 mm 5 mps 621 mmHg 39%
    16:00 +25°C° 0.2 mm 5 mps 621 mmHg 44%
    17:00 +22°C° 0.2 mm 5 mps 621 mmHg 49%
    18:00 +21°C° 0.2 mm 5 mps 621 mmHg 53%
    19:00 +20°C° 0 mm 4 mps 621 mmHg 57%
    20:00 +19°C° 0 mm 4 mps 621 mmHg 60%
    21:00 +18°C° 0 mm 3 mps 621 mmHg 64%
    22:00 +17°C° 0 mm 3 mps 621 mmHg 65%
    23:00 +17°C° 0 mm 3 mps 621 mmHg 67%

    22 June, Saturday

    Time Temperature Precipitation Wind Pressure Humidity
    00:00 +16°C° 0 mm 2 mps 621 mmHg 68%
    01:00 +16°C° 0 mm 2 mps 621 mmHg 69%
    02:00 +15°C° 0 mm 2 mps 621 mmHg 71%
    03:00 +15°C° 0 mm 2 mps 621 mmHg 72%
    04:00 +15°C° 0 mm 2 mps 621 mmHg 71%
    05:00 +16°C° 0 mm 2 mps 622 mmHg 69%
    06:00 +16°C° 0 mm 2 mps 622 mmHg 68%
    07:00 +18°C° 0 mm 2 mps 623 mmHg 62%
    08:00 +19°C° 0 mm 2 mps 623 mmHg 57%
    09:00 +21°C° 0 mm 2 mps 624 mmHg 51%
    10:00 +22°C° 0 mm 3 mps 624 mmHg 48%
    11:00 +25°C° 0 mm 3 mps 624 mmHg 45%
    12:00 +26°C° 0 mm 3 mps 625 mmHg 42%
    13:00 +26°C° 0 mm 3 mps 625 mmHg 41%
    14:00 +27°C° 0 mm 4 mps 624 mmHg 40%
    15:00 +27°C° 0 mm 4 mps 624 mmHg 40%
    16:00 +26°C° 0 mm 4 mps 624 mmHg 42%
    17:00 +26°C° 0 mm 4 mps 624 mmHg 44%
    18:00 +25°C° 0 mm 4 mps 624 mmHg 47%
    19:00 +22°C° 0 mm 4 mps 623 mmHg 50%
    20:00 +21°C° 0 mm 4 mps 623 mmHg 53%
    21:00 +19°C° 0 mm 3 mps 623 mmHg 56%
    22:00 +19°C° 0 mm 3 mps 623 mmHg 57%
    23:00 +18°C° 0 mm 3 mps 623 mmHg 58%

    23 June, Sunday

    Time Temperature Precipitation Wind Pressure Humidity
    00:00 +18°C° 0 mm 3 mps 623 mmHg 59%
    01:00 +17°C° 0 mm 3 mps 623 mmHg 58%
    02:00 +17°C° 0 mm 2 mps 623 mmHg 58%
    03:00 +17°C° 0 mm 2 mps 623 mmHg 58%
    04:00 +17°C° 0 mm 2 mps 623 mmHg 56%
    05:00 +18°C° 0 mm 2 mps 623 mmHg 54%
    06:00 +19°C° 0 mm 2 mps 624 mmHg 52%
    07:00 +21°C° 0 mm 2 mps 624 mmHg 47%
    08:00 +23°C° 0 mm 2 mps 625 mmHg 43%
    09:00 +25°C° 0 mm 2 mps 625 mmHg 39%
    10:00 +26°C° 0 mm 3 mps 625 mmHg 37%
    11:00 +27°C° 0 mm 3 mps 626 mmHg 35%
    12:00 +28°C° 0 mm 3 mps 626 mmHg 34%
    13:00 +29°C° 0 mm 3 mps 625 mmHg 33%
    14:00 +29°C° 0 mm 4 mps 625 mmHg 33%
    15:00 +29°C° 0 mm 4 mps 625 mmHg 33%
    16:00 +29°C° 0 mm 4 mps 624 mmHg 35%
    17:00 +28°C° 0 mm 4 mps 624 mmHg 38%
    18:00 +27°C° 0 mm 5 mps 624 mmHg 40%
    19:00 +25°C° 0 mm 4 mps 623 mmHg 44%
    20:00 +22°C° 0 mm 4 mps 623 mmHg 49%
    21:00 +21°C° 0 mm 4 mps 623 mmHg 54%
    22:00 +20°C° 0 mm 4 mps 623 mmHg 57%
    23:00 +19°C° 0 mm 4 mps 623 mmHg 60%
    Show more